Location: Newark
(49.8969°N, 3.3422°E)
Time: 13:29:27
(UTC+00:00)

A-11 Canister half - All Passes

Search period start: 23 January 2020 00:00
Search period end: 02 February 2020 00:00
Orbit: 1525 x 1684 km, 47.3° (Epoch: 22 January)

Date Brightness Start Highest point End Pass type
(mag) Time Alt. Az. Time Alt. Az. Time Alt. Az.
23 Jan - 01:39:52 10° W 01:46:25 20° SW 01:53:04 10° S night (unlit)
23 Jan - 17:00:14 10° SSW 17:08:13 33° SE 17:16:24 10° E visible
23 Jan - 19:02:50 10° WSW 19:12:06 66° SSE 19:21:41 10° E visible
23 Jan - 21:07:21 10° W 21:16:52 77° S 21:26:43 10° ESE visible
23 Jan - 23:12:11 10° W 23:21:25 52° SSW 23:30:57 10° SE visible
24 Jan - 01:18:05 10° W 01:24:51 21° SW 01:31:44 10° S night (unlit)
24 Jan - 16:38:49 10° SSW 16:46:40 32° SE 16:54:42 10° E daylight
24 Jan - 18:41:15 10° WSW 18:50:29 65° SSE 19:00:02 10° E visible
24 Jan - 20:45:44 10° W 20:55:14 77° S 21:05:03 10° ESE visible
24 Jan - 22:50:33 10° W 22:59:48 54° SSW 23:09:21 10° SE visible
25 Jan - 00:56:20 10° W 01:03:18 23° SW 01:10:24 10° S night (unlit)
25 Jan - 16:17:24 10° SSW 16:25:07 31° SE 16:32:59 10° E daylight
25 Jan - 18:19:41 10° WSW 18:28:52 64° SSE 18:38:22 10° E visible
25 Jan - 20:24:07 10° W 20:33:35 77° S 20:43:24 10° E visible
25 Jan - 22:28:55 10° W 22:38:11 55° SSW 22:47:45 10° SE visible
26 Jan - 00:34:36 10° W 00:41:44 24° SW 00:49:02 10° S night (unlit)
26 Jan - 15:56:00 10° SSW 16:03:34 29° SE 16:11:17 10° E daylight
26 Jan - 17:58:07 10° SW 18:07:16 62° SSE 18:16:42 10° E visible
26 Jan - 20:02:30 10° W 20:11:57 77° S 20:21:44 10° E visible
26 Jan - 22:07:18 10° W 22:16:34 57° SSW 22:26:09 10° SE visible
27 Jan - 00:12:52 10° W 00:20:11 25° SW 00:27:39 10° S night (unlit)
27 Jan - 15:34:36 10° S 15:42:02 28° SE 15:49:34 10° E daylight
27 Jan - 17:36:32 10° SW 17:45:40 61° SSE 17:55:03 10° E visible
27 Jan - 19:40:54 10° W 19:50:19 78° S 20:00:03 10° E visible
27 Jan - 21:45:41 10° W 21:54:57 58° SSW 22:04:32 10° SE visible
27 Jan - 23:51:09 10° W 23:58:37 26° SW 00:06:16 10° S visible
28 Jan - 15:13:13 10° S 15:20:29 27° SE 15:27:50 10° E daylight
28 Jan - 17:14:58 10° SW 17:24:03 60° SSE 17:33:23 10° E visible
28 Jan - 19:19:16 10° W 19:28:40 78° S 19:38:24 10° E visible
28 Jan - 21:24:03 10° W 21:33:20 59° SSW 21:42:56 10° SE visible
28 Jan - 23:29:27 10° W 23:37:03 27° SW 23:44:50 10° S visible
29 Jan - 14:51:52 10° S 14:58:57 25° SE 15:06:06 10° E daylight
29 Jan - 16:53:26 10° SW 17:02:27 58° SSE 17:11:44 10° E visible
29 Jan - 18:57:40 10° W 19:07:03 78° S 19:16:44 10° E visible
29 Jan - 21:02:26 10° W 21:11:43 61° SSW 21:21:18 10° SE visible
29 Jan - 23:07:45 10° W 23:15:29 28° SW 23:23:25 10° S visible
30 Jan - 14:30:31 10° S 14:37:25 24° SE 14:44:22 10° E daylight
30 Jan - 16:31:52 10° SW 16:40:52 57° SSE 16:50:03 10° E daylight
30 Jan - 18:36:03 10° W 18:45:25 77° S 18:55:04 10° E visible
30 Jan - 20:40:49 10° W 20:50:06 62° SSW 20:59:42 10° SE visible
30 Jan - 22:46:04 10° W 22:53:55 30° SW 23:01:58 10° SSE visible
31 Jan - 14:09:11 10° S 14:15:52 23° SE 14:22:37 10° E daylight
31 Jan - 16:10:19 10° SW 16:19:16 55° SSE 16:28:25 10° E daylight
31 Jan - 18:14:26 10° W 18:23:46 77° S 18:33:25 10° E visible
31 Jan - 20:19:12 10° W 20:28:29 63° SSW 20:38:05 10° ESE visible
31 Jan - 22:24:23 10° W 22:32:21 31° SW 22:40:31 10° SSE visible
01 Feb - 13:47:52 10° S 13:54:20 22° SE 14:00:51 10° E daylight
01 Feb - 15:48:46 10° SW 15:57:41 53° SSE 16:06:45 10° E daylight
01 Feb - 17:52:49 10° W 18:02:09 77° S 18:11:45 10° E visible
01 Feb - 19:57:35 10° W 20:06:52 65° SSW 20:16:26 10° ESE visible
01 Feb - 22:02:42 10° W 22:10:46 32° SW 22:19:03 10° SSE visible
